Location: Unspecified
(0.0000°N, 0.0000°E)
Time: 06:42:39
(UTC+00:00)

Explorer 11/Cluster Stage 4 - Visible Passes

Search period start: 19 June 2018 00:00
Search period end: 29 June 2018 00:00
Orbit: 467 x 1261 km, 28.8° (Epoch: 18 June)

Date Brightness Start Highest point End Pass type
(mag) Time Alt. Az. Time Alt. Az. Time Alt. Az.
19 Jun 9.0 03:12:52 15° ESE 03:12:52 15° ESE 03:14:17 10° E visible
19 Jun 6.7 04:55:02 23° WSW 04:58:31 77° NNW 05:05:16 10° NE visible
20 Jun 9.1 03:03:18 13° E 03:03:18 13° E 03:04:08 10° E visible
20 Jun 6.8 04:45:29 29° W 04:48:09 62° NNW 04:54:34 10° NE visible
21 Jun 9.4 02:53:44 11° E 02:53:44 11° E 02:53:55 10° E visible
21 Jun 7.0 04:35:54 33° W 04:37:49 49° NNW 04:43:49 10° NE visible
22 Jun 7.2 04:26:19 33° WNW 04:27:32 38° NNW 04:33:01 10° NE visible
23 Jun 7.5 04:16:41 28° NW 04:17:16 29° NNW 04:22:09 10° NE visible
24 Jun 7.9 04:07:03 22° NNW 04:07:03 22° NNW 04:11:13 10° NNE visible
25 Jun 8.3 03:57:23 17° NNW 03:57:23 17° NNW 04:00:09 10° NNE visible
26 Jun 8.7 03:47:41 12° N 03:47:41 12° N 03:48:49 10° N visible
